PRAETORIAN SDA_608

Last updated on Sat Oct 11 2025 00:02:05 GMT+0000 (Coordinated Universal Time)

1 65571U 25203G 25283.40898172 .00000050 00000+0 34066-4 0 9992 2 65571 81.2987 242.1636 0006792 146.4745 213.6843 13.84530592 4135
UTC large
Height (km)
Speed (km/s)
/
Latitude / Longitude
Inclination (degrees)
Orbital Period (minutes)
Azimuth
Elevation
Range (km)
Doppler Factor

Next 0 passes for location: London (51.5072 / 0.1276)

Sorry there are no passes over London.
PRAETORIAN SDA_608